NU3S-7 Weather Reports


time (UTC)temp
C
wind
direction
speed
KPH
gust
KPH
rain 1hr
cm
rain 24hr
cm
rain mn
cm
humidity
%
barometer
mb
20260504041428 6 0 0.0 0.0 0.00 0.00 0.00 85 1013.4
20260504035426 7 0 0.0 0.0 0.00 0.00 0.00 82 1013.3
20260504034425 7 0 0.0 0.0 0.00 0.00 0.00 82 1013.2
20260504033424 7 0 0.0 0.0 0.00 0.00 0.00 81 1013.1
20260504030423 8 0 0.0 0.0 0.00 0.00 0.00 78 1013.2
20260504024423 8 0 0.0 0.0 0.00 0.00 0.00 76 1013.4
20260504023422 8 0 0.0 0.0 0.00 0.00 0.00 75 1013.5
20260504022500 9 0 0.0 0.0 0.00 0.00 0.00 74 1013.5
20260504022422 9 0 0.0 0.0 0.00 0.00 0.00 74 1013.5
20260504021420 9 0 0.0 0.0 0.00 0.00 0.00 73 1013.5
20260504020420 10 0 0.0 0.0 0.00 0.00 0.00 71 1013.6
20260504015417 10 0 0.0 0.0 0.00 0.00 0.00 69 1013.5
20260504014417 10 0 0.0 0.0 0.00 0.00 0.00 69 1013.4
20260504011416 11 0 0.0 0.0 0.00 0.00 0.00 66 1013.3
20260504005414 11 0 0.0 0.0 0.00 0.00 0.00 64 1013.2
20260504004412 12 280 0.0 6.4 0.00 0.00 0.00 63 1013.2
20260504003411 12 0 0.0 0.0 0.00 0.00 0.00 63 1013.4
20260504002411 12 0 0.0 0.0 0.00 0.00 0.00 62 1013.4
20260504001409 12 285 1.6 11.3 0.00 0.00 0.00 61 1013.4
20260503235416 13 304 1.6 11.3 0.00 0.00 0.00 59 1013.5
20260503234408 13 274 3.2 11.3 0.00 0.00 0.00 58 1013.6
20260503233408 13 267 3.2 14.5 0.00 0.00 0.00 57 1013.7
20260503230402 14 295 8.0 17.7 0.00 0.00 0.00 56 1013.7
20260503225427 14 263 6.4 14.5 0.00 0.00 0.00 56 1013.7
20260503224418 13 195 4.8 12.9 0.00 0.00 0.00 56 1013.8
20260503223504 14 270 6.4 17.7 0.00 0.00 0.00 56 1014.0
20260503222420 14 264 9.7 25.7 0.00 0.00 0.00 55 1014.1
20260503220412 14 271 11.3 24.1 0.00 0.00 0.00 55 1014.1
20260503214357 15 259 6.4 16.1 0.00 0.00 0.00 55 1013.8
20260503213424 15 200 6.4 22.5 0.00 0.00 0.00 55 1013.7
20260503210355 15 267 12.9 24.1 0.00 0.00 0.00 56 1014.0
20260503205356 13 253 8.0 25.7 0.00 0.00 0.00 57 1014.1
20260503204418 15 274 6.4 22.5 0.00 0.00 0.00 57 1014.2
20260503203357 15 300 8.0 19.3 0.00 0.00 0.00 56 1014.4
20260503194344 13 253 11.3 27.4 0.00 0.00 0.00 57 1014.9
20260503193344 13 277 8.0 20.9 0.00 0.00 0.00 56 1015.0
20260503192353 14 281 9.7 22.5 0.00 0.00 0.00 57 1015.1
20260503191347 13 308 4.8 17.7 0.00 0.00 0.00 58 1015.2
20260503190354 14 278 12.9 30.6 0.00 0.00 0.00 58 1015.4
20260503185345 13 269 11.3 25.7 0.00 0.00 0.00 56 1015.5
20260503184342 13 274 14.5 32.2 0.00 0.00 0.00 56 1015.6
20260503183450 13 278 12.9 32.2 0.00 0.00 0.00 59 1015.5
20260503182357 13 238 4.8 16.1 0.00 0.00 0.00 60 1015.8
20260503181345 14 319 9.7 20.9 0.00 0.00 0.00 60 1015.9
20260503180343 13 269 6.4 25.7 0.00 0.00 0.00 61 1016.0
20260503175505 13 281 11.3 24.1 0.00 0.00 0.00 60 1016.1
20260503174506 13 349 4.8 14.5 0.00 0.00 0.00 60 1016.1
20260503173349 12 294 6.4 20.9 0.00 0.00 0.00 60 1016.2
20260503130325 6 293 4.8 9.7 0.00 0.00 0.00 92 1018.1
20260503110317 1 0 0.0 0.0 0.00 0.00 0.00 100 1017.0
20260503090307 0 0 0.0 0.0 0.00 0.00 0.00 100 1016.4
20260503081303 1 0 0.0 0.0 0.00 0.00 0.00 100 1016.2
20260503080302 1 0 0.0 0.0 0.00 0.00 0.00 100 1016.3
20260503072300 1 0 0.0 0.0 0.00 0.00 0.00 100 1016.1
20260503071300 1 0 0.0 0.0 0.00 0.00 0.00 100 1016.0
20260503070259 1 0 0.0 0.0 0.00 0.00 0.00 100 1016.0
20260503060257 1 0 0.0 0.0 0.00 0.00 0.00 100 1016.2
20260503054327 1 0 0.0 0.0 0.00 0.00 0.00 99 1016.2
20260503054256 1 0 0.0 0.0 0.00 0.00 0.00 99 1016.2
20260503053256 1 0 0.0 0.0 0.00 0.00 0.00 99 1016.2
20260503051255 1 0 0.0 0.0 0.00 0.00 0.00 99 1016.2
20260503045254 2 0 0.0 0.0 0.00 0.00 0.00 98 1016.3
20260503044254 2 0 0.0 0.0 0.00 0.00 0.00 98 1016.2